This is the latest recevied weather packets stored in our database for station/object WB4MOZ-3. If no packets are shown the sender has not sent any weather packets the latest 10 day(s).
| Time | Temp. | Humidity | Pressure | Rain* | Wind** | Luminosity | Snow |
|---|---|---|---|---|---|---|---|
| 1777745865 | 35.56° C | 44% | 1008.9 hPa | 0 mm | - | - | - |
| 1777745565 | 35° C | 45% | 1008.8 hPa | 0 mm | - | - | - |
| 1777745265 | 35.56° C | 45% | 1008.9 hPa | 0 mm | - | - | - |
| 1777744965 | 35.56° C | 44% | 1008.9 hPa | 0 mm | - | - | - |
| 1777744665 | 35.56° C | 48% | 1008.9 hPa | 0 mm | - | - | - |
| 1777744364 | 35° C | 45% | 1009 hPa | 0 mm | - | - | - |
| 1777744065 | 35.56° C | 47% | 1008.9 hPa | 0 mm | - | - | - |
| 1777743765 | 35.56° C | 49% | 1009 hPa | 0 mm | - | - | - |
| 1777743464 | 35° C | 48% | 1009.2 hPa | 0 mm | - | - | - |
| 1777743164 | 34.44° C | 51% | 1009.3 hPa | 0 mm | - | - | - |
| 1777742865 | 33.89° C | 53% | 1009.3 hPa | 0 mm | - | - | - |
| 1777742564 | 33.89° C | 52% | 1009.2 hPa | 0 mm | - | - | - |
| 1777742264 | 34.44° C | 53% | 1009.1 hPa | 0 mm | - | - | - |
| 1777741964 | 33.89° C | 52% | 1009.2 hPa | 0 mm | - | - | - |
| 1777741665 | 34.44° C | 53% | 1009.4 hPa | 0 mm | - | - | - |
| 1777741365 | 34.44° C | 56% | 1009.3 hPa | 0 mm | - | - | - |
| 1777741064 | 34.44° C | 53% | 1009.5 hPa | 0 mm | - | - | - |
| 1777740764 | 35° C | 52% | 1009.5 hPa | 0 mm | - | - | - |
| 1777740164 | 34.44° C | 53% | 1009.5 hPa | 0 mm | - | - | - |
| 1777739864 | 34.44° C | 54% | 1009.7 hPa | 0 mm | - | - | - |
| 1777739564 | 34.44° C | 53% | 1009.5 hPa | 0 mm | - | - | - |
| 1777739264 | 35° C | 53% | 1009.8 hPa | 0 mm | - | - | - |
| 1777738665 | 34.44° C | 54% | 1009.9 hPa | 0 mm | - | - | - |
| 1777738364 | 34.44° C | 55% | 1009.9 hPa | 0 mm | - | - | - |
| 1777738064 | 34.44° C | 54% | 1010 hPa | 0 mm | - | - | - |
* Rain latest hour (hover to see other rain measurements)
** Current wind speed in m/s (hover to see current wind gust speed)